Location: *
(38.9800°N, 16.0500°E)
Time: 04:53:30
(UTC+00:00)

RUBIN 8/PSLV - Pass Details

Date: 07 April 2020
Orbit: 611 x 648 km, 97.9° (Epoch: 05 June)

Event Time Altitude Azimuth Distance (km) Brightness Sun altitude
Rises 02:15:35 0° 13° (NNE) 2,884 8.7 -25.2°
Reaches altitude 10° 02:17:46 10° 14° (NNE) 1,976 7.7 -24.8°
Maximum altitude 02:22:04 83° 103° (ESE) 624 4.5 -24.1°
Enters shadow 02:22:13 80° 143° (SE) 627 4.4 -24.1°
